timestamp,surface_pressure_avg,surface_temp_avg,battery_voltage,lat,long
2018-02-15 00:00:00+00:00,303.0397,0.8,12.65,47.84626,-54.09684
2018-02-15 00:10:00+00:00,299.353,0.8,12.65,47.84626,-54.09684
2018-02-15 00:20:00+00:00,297.013,0.8,12.65,47.84626,-54.09684
2018-02-15 00:30:00+00:00,293.3846,0.8,12.65,47.84626,-54.09684
2018-02-15 00:40:00+00:00,287.1746,0.8,12.65,47.84626,-54.09684
2018-02-15 00:50:00+00:00,284.7347,0.8,12.65,47.84626,-54.09684
2018-02-15 01:00:00+00:00,283.4097,0.8,12.65,47.84626,-54.09684
2018-02-15 01:10:00+00:00,277.7464,0.8,12.65,47.84626,-54.09684
2018-02-15 01:20:00+00:00,271.4431,0.8,12.65,47.84626,-54.09684
2018-02-15 01:30:00+00:00,269.7414,0.8,12.65,47.84626,-54.09684
2018-02-15 01:40:00+00:00,267.3214,0.8,12.65,47.84626,-54.09684
2018-02-15 01:50:00+00:00,261.6348,0.8,12.65,47.84626,-54.09684
2018-02-15 02:00:00+00:00,257.0547,0.8,12.65,47.84626,-54.09684
2018-02-15 02:10:00+00:00,256.7247,0.8,12.65,47.84626,-54.09684
2018-02-15 02:20:00+00:00,253.4948,0.8,12.65,47.84626,-54.09684
2018-02-15 02:30:00+00:00,243.3531,0.8,12.65,47.84626,-54.09684
2018-02-15 02:40:00+00:00,233.7981,0.8,12.65,47.84626,-54.09684
2018-02-15 02:50:00+00:00,227.3665,0.8,12.65,47.84626,-54.09684
2018-02-15 03:00:00+00:00,221.4464,0.8,12.65,47.84626,-54.09684
2018-02-15 03:10:00+00:00,211.7681,0.79,12.65,47.84626,-54.09684
2018-02-15 03:20:00+00:00,200.8282,0.75,12.65,47.84626,-54.09684
2018-02-15 03:30:00+00:00,196.1564,0.77,12.65,47.84626,-54.09684
2018-02-15 03:40:00+00:00,195.9748,0.79,12.65,47.84626,-54.09684
2018-02-15 03:50:00+00:00,193.2598,0.77,12.65,47.84626,-54.09684
2018-02-15 04:00:00+00:00,185.6082,0.77,12.57,47.84626,-54.09684
2018-02-15 04:10:00+00:00,179.0115,0.79,12.57,47.84626,-54.09684
2018-02-15 04:20:00+00:00,176.5081,0.79,12.65,47.84626,-54.09684
2018-02-15 04:30:00+00:00,172.1949,0.79,12.65,47.84626,-54.09684
2018-02-15 04:40:00+00:00,169.8665,0.78,12.65,47.84626,-54.09684
2018-02-15 04:50:00+00:00,171.1265,0.78,12.65,47.84626,-54.09684
2018-02-15 05:00:00+00:00,169.9081,0.78,12.57,47.84626,-54.09684
2018-02-15 05:10:00+00:00,169.5198,0.77,12.57,47.84626,-54.09684
2018-02-15 05:20:00+00:00,174.1348,0.76,12.65,47.84626,-54.09684
2018-02-15 05:30:00+00:00,179.6265,0.77,12.65,47.84626,-54.09684
2018-02-15 05:40:00+00:00,181.0048,0.77,12.65,47.84626,-54.09684
2018-02-15 05:50:00+00:00,179.8581,0.75,12.65,47.84626,-54.09684
2018-02-15 06:00:00+00:00,182.3681,0.7,12.57,47.84626,-54.09684
2018-02-15 06:10:00+00:00,185.4264,0.7,12.57,47.84626,-54.09684
2018-02-15 06:20:00+00:00,189.1548,0.7,12.65,47.84626,-54.09684
2018-02-15 06:30:00+00:00,196.7781,0.7,12.65,47.84626,-54.09684
2018-02-15 06:40:00+00:00,202.5631,0.7,12.65,47.84626,-54.09684
2018-02-15 06:50:00+00:00,204.7914,0.7,12.65,47.84626,-54.09684
2018-02-15 07:00:00+00:00,212.3382,0.7,12.57,47.84626,-54.09684
2018-02-15 07:10:00+00:00,222.2531,0.7,12.57,47.84626,-54.09684
2018-02-15 07:20:00+00:00,229.0881,0.7,12.65,47.84626,-54.09684
2018-02-15 07:30:00+00:00,234.3014,0.7,12.65,47.84626,-54.09684
2018-02-15 07:40:00+00:00,242.6914,0.7,12.65,47.84626,-54.09684
2018-02-15 07:50:00+00:00,250.9464,0.7,12.65,47.84626,-54.09684
2018-02-15 08:00:00+00:00,254.3714,0.7,12.57,47.84626,-54.09684
2018-02-15 08:10:00+00:00,260.1498,0.7,12.57,47.84626,-54.09684
2018-02-15 08:20:00+00:00,269.4764,0.7,12.65,47.84626,-54.09684
2018-02-15 08:30:00+00:00,277.7014,0.7,12.65,47.84626,-54.09684
2018-02-15 08:40:00+00:00,283.6531,0.7,12.65,47.84626,-54.09684
2018-02-15 08:50:00+00:00,290.2247,0.7,12.65,47.84626,-54.09684
2018-02-15 09:00:00+00:00,299.0797,0.7,12.57,47.84626,-54.09684
2018-02-15 09:10:00+00:00,300.7197,0.7,12.57,47.84626,-54.09684
2018-02-15 09:20:00+00:00,303.578,0.7,12.65,47.84626,-54.09684
2018-02-15 09:30:00+00:00,313.793,0.7,12.65,47.84626,-54.09684
2018-02-15 09:40:00+00:00,325.3347,0.7,12.65,47.84626,-54.09684
2018-02-15 09:50:00+00:00,327.0797,0.75,12.65,47.84626,-54.09684
2018-02-15 10:00:00+00:00,327.1696,0.74,12.57,47.84626,-54.09684
2018-02-15 10:10:00+00:00,335.8362,0.74,12.57,47.84626,-54.09684
2018-02-15 10:20:00+00:00,345.2262,0.75,12.65,47.84626,-54.09684
2018-02-15 10:30:00+00:00,346.8529,0.78,12.57,47.84626,-54.09684
2018-02-15 10:40:00+00:00,350.6079,0.77,12.65,47.84626,-54.09684
2018-02-15 10:50:00+00:00,357.6913,0.76,12.65,47.84626,-54.09684
2018-02-15 11:00:00+00:00,363.2062,0.78,12.57,47.84626,-54.09684
2018-02-15 11:10:00+00:00,362.453,0.78,12.57,47.84626,-54.09684
2018-02-15 11:20:00+00:00,367.0329,0.77,12.81,47.84626,-54.09684
2018-02-15 11:30:00+00:00,371.6746,0.78,12.97,47.84626,-54.09684
2018-02-15 11:40:00+00:00,366.9813,0.7,13.05,47.84626,-54.09684
2018-02-15 11:50:00+00:00,369.2296,0.7,12.97,47.84626,-54.09684
2018-02-15 12:00:00+00:00,373.0646,0.71,13.05,47.84626,-54.09684
2018-02-15 12:10:00+00:00,368.2312,0.7,13.21,47.84626,-54.09684
2018-02-15 12:20:00+00:00,368.0546,0.7,13.29,47.84626,-54.09684
2018-02-15 12:30:00+00:00,372.8779,0.7,13.29,47.84626,-54.09684
2018-02-15 12:40:00+00:00,370.1678,0.7,13.05,47.84626,-54.09684
2018-02-15 12:50:00+00:00,357.5063,0.7,13.05,47.84626,-54.09684
2018-02-15 13:00:00+00:00,357.7863,0.7,13.05,47.84626,-54.09684
2018-02-15 13:10:00+00:00,361.2112,0.73,13.37,47.84626,-54.09684
2018-02-15 13:20:00+00:00,350.1862,0.7,13.05,47.84626,-54.09684
2018-02-15 13:30:00+00:00,342.7746,0.7,12.97,47.84626,-54.09684
2018-02-15 13:40:00+00:00,344.528,0.73,12.89,47.84626,-54.09684
2018-02-15 13:50:00+00:00,340.4496,0.76,12.97,47.84626,-54.09684
2018-02-15 14:00:00+00:00,329.9997,0.77,12.97,47.84626,-54.09684
2018-02-15 14:10:00+00:00,328.408,0.77,12.97,47.84626,-54.09684
2018-02-15 14:20:00+00:00,329.5112,0.79,13.37,47.84626,-54.09684
2018-02-15 14:30:00+00:00,316.343,0.78,13.53,47.84626,-54.09684
2018-02-15 14:40:00+00:00,304.0314,0.78,13.53,47.84626,-54.09684
2018-02-15 14:50:00+00:00,302.903,0.79,13.53,47.84626,-54.09684
2018-02-15 15:00:00+00:00,292.0748,0.8,13.37,47.84626,-54.09684
2018-02-15 15:10:00+00:00,278.1147,0.8,13.44,47.84626,-54.09684
2018-02-15 15:20:00+00:00,272.8647,0.8,13.53,47.84626,-54.09684
2018-02-15 15:30:00+00:00,269.6581,0.8,13.44,47.84626,-54.09684
2018-02-15 15:40:00+00:00,254.6231,0.8,13.53,47.84626,-54.09684
2018-02-15 15:50:00+00:00,243.6465,0.81,13.53,47.84626,-54.09684
2018-02-15 16:00:00+00:00,247.7447,0.83,13.44,47.84626,-54.09684
2018-02-15 16:10:00+00:00,247.5664,0.84,13.37,47.84626,-54.09684
2018-02-15 16:20:00+00:00,238.7348,0.87,13.44,47.84626,-54.09684
2018-02-15 16:30:00+00:00,233.2014,0.88,13.44,47.84626,-54.09684
2018-02-15 16:40:00+00:00,233.5715,0.89,13.44,47.84626,-54.09684
2018-02-15 16:50:00+00:00,229.1798,0.9,13.44,47.84626,-54.09684
2018-02-15 17:00:00+00:00,221.0598,0.9,13.29,47.84626,-54.09684
2018-02-15 17:10:00+00:00,218.5215,0.9,13.21,47.84626,-54.09684
2018-02-15 17:20:00+00:00,218.0397,0.9,13.05,47.84626,-54.09684
2018-02-15 17:30:00+00:00,209.4148,0.9,13.13,47.84626,-54.09684
2018-02-15 17:40:00+00:00,205.7548,0.9,13.21,47.84626,-54.09684
2018-02-15 17:50:00+00:00,211.4131,0.9,13.13,47.84626,-54.09684
2018-02-15 18:00:00+00:00,208.7382,0.9,13.05,47.84626,-54.09684
2018-02-15 18:10:00+00:00,202.0415,0.93,12.97,47.84626,-54.09684
2018-02-15 18:20:00+00:00,210.9964,0.9,12.97,47.84626,-54.09684
2018-02-15 18:30:00+00:00,220.3948,0.91,12.97,47.84626,-54.09684
2018-02-15 18:40:00+00:00,221.4647,0.95,12.97,47.84626,-54.09684
2018-02-15 18:50:00+00:00,230.7897,0.96,12.97,47.84626,-54.09684
2018-02-15 19:00:00+00:00,235.2714,0.97,12.89,47.84626,-54.09684
2018-02-15 19:10:00+00:00,226.6214,0.99,12.89,47.84626,-54.09684
2018-02-15 19:20:00+00:00,224.6414,0.99,12.89,47.84626,-54.09684
2018-02-15 19:30:00+00:00,235.1481,0.99,12.89,47.84626,-54.09684
2018-02-15 19:40:00+00:00,244.7448,1.0,12.89,47.84626,-54.09684
2018-02-15 19:50:00+00:00,246.5231,1.0,12.89,47.84626,-54.09684
2018-02-15 20:00:00+00:00,246.2848,1.0,12.81,47.84626,-54.09684
2018-02-15 20:10:00+00:00,252.8814,1.0,12.81,47.84626,-54.09684
2018-02-15 20:20:00+00:00,266.5764,0.99,12.89,47.84626,-54.09684
2018-02-15 20:30:00+00:00,266.6664,1.0,12.89,47.84626,-54.09684
2018-02-15 20:40:00+00:00,268.1664,1.0,12.89,47.84626,-54.09684
2018-02-15 20:50:00+00:00,274.5914,1.0,12.89,47.84626,-54.09684
2018-02-15 21:00:00+00:00,278.508,0.96,12.81,47.84626,-54.09684
2018-02-15 21:10:00+00:00,276.3681,0.96,12.81,47.84626,-54.09684
2018-02-15 21:20:00+00:00,287.533,0.93,12.81,47.84626,-54.09684
2018-02-15 21:30:00+00:00,300.0547,0.98,12.81,47.84626,-54.09684
2018-02-15 21:40:00+00:00,305.8863,0.9,12.81,47.84626,-54.09684
2018-02-15 21:50:00+00:00,310.353,0.9,12.81,47.84626,-54.09684
2018-02-15 22:00:00+00:00,319.328,0.93,12.81,47.84626,-54.09684
2018-02-15 22:10:00+00:00,322.0613,0.92,12.81,47.84626,-54.09684
2018-02-15 22:20:00+00:00,328.3263,0.95,12.81,47.84626,-54.09684
2018-02-15 22:30:00+00:00,335.5812,0.99,12.81,47.84626,-54.09684
2018-02-15 22:40:00+00:00,339.8864,0.99,12.81,47.84626,-54.09684
2018-02-15 22:50:00+00:00,340.3297,0.95,12.81,47.84626,-54.09684
2018-02-15 23:00:00+00:00,343.6897,0.96,12.73,47.84626,-54.09684
2018-02-15 23:10:00+00:00,350.343,0.98,12.73,47.84626,-54.09684
2018-02-15 23:20:00+00:00,354.423,1.0,12.81,47.84626,-54.09684
2018-02-15 23:30:00+00:00,357.0413,1.0,12.81,47.84626,-54.09684
2018-02-15 23:40:00+00:00,359.2247,1.0,12.81,47.84626,-54.09684
2018-02-15 23:50:00+00:00,360.6763,1.0,12.81,47.84626,-54.09684
